User: anonymous   Login
Location: Unspecified
(0.0000°N, 0.0000°E)
Time: 16:56:18
(UTC+02:00)
Language:

SJ-6B - Orbit

View from above orbital plane
View from above orbital plane
View from above satellite
View from above satellite

Ground track
Ground track

The orbit data is extracted from the following two-line orbital elements,

1 28415U 04035C   17147.95772815 +.00000901 +00000-0 +64190-4 0  9990
2 28415 097.7476 177.0130 0052183 188.3291 171.7075 15.06179883695536
Epoch (UTC): 27 May 2017 22:59:07
Eccentricity: 0.0052183
inclination: 97.7476°
perigee height: 512 km
apogee height: 584 km
right ascension of ascending node: 177.0130°
argument of perigee: 188.3291°
revolutions per day: 15.06179883
mean anomaly at epoch: 171.7075°
orbit number at epoch: 69553

The dashed part of the orbit path shows where the satellite is in the earth's shadow,  

DLR